TimeCST,TemperatureF,Dew PointF,Humidity,Sea Level PressureIn,VisibilityMPH,Wind Direction,Wind SpeedMPH,Gust SpeedMPH,PrecipitationIn,Events,Conditions,WindDirDegrees,DateUTC
12:51 AM,24.1,9.0,53,30.40,10.0,NW,9.2,-,N/A,,Clear,320,2012-11-27 06:51:00
1:51 AM,24.1,9.0,53,30.41,10.0,NW,8.1,-,N/A,,Clear,320,2012-11-27 07:51:00
2:51 AM,23.0,8.1,53,30.40,10.0,NW,8.1,-,N/A,,Clear,320,2012-11-27 08:51:00
3:51 AM,21.9,8.1,55,30.40,10.0,NW,9.2,-,N/A,,Clear,320,2012-11-27 09:51:00
4:51 AM,21.0,8.1,57,30.40,10.0,NW,8.1,-,N/A,,Clear,320,2012-11-27 10:51:00
5:51 AM,21.2,8.6,58,30.36,10.0,NNW,8.1,-,N/A,,Clear,340,2012-11-27 11:51:00
6:51 AM,19.9,8.1,60,30.41,10.0,NW,6.9,-,N/A,,Partly Cloudy,320,2012-11-27 12:51:00
7:51 AM,21.9,7.0,53,30.43,10.0,NW,4.6,-,N/A,,Scattered Clouds,320,2012-11-27 13:51:00
8:51 AM,25.0,7.0,46,30.45,10.0,WNW,5.8,-,N/A,,Scattered Clouds,300,2012-11-27 14:51:00
9:51 AM,27.0,7.0,43,30.46,10.0,WSW,5.8,-,N/A,,Scattered Clouds,250,2012-11-27 15:51:00
10:51 AM,30.0,8.1,40,30.45,10.0,WSW,8.1,-,N/A,,Partly Cloudy,240,2012-11-27 16:51:00
11:51 AM,32.0,8.1,37,30.41,10.0,WSW,9.2,-,N/A,,Scattered Clouds,240,2012-11-27 17:51:00
12:51 PM,33.1,8.1,35,30.38,10.0,WSW,8.1,-,N/A,,Mostly Cloudy,250,2012-11-27 18:51:00
1:51 PM,34.0,8.1,34,30.35,10.0,WSW,9.2,-,N/A,,Mostly Cloudy,250,2012-11-27 19:51:00
2:51 PM,34.0,7.0,32,30.33,10.0,SW,10.4,-,N/A,,Mostly Cloudy,230,2012-11-27 20:51:00
3:51 PM,32.0,9.0,38,30.33,10.0,WSW,9.2,-,N/A,,Mostly Cloudy,240,2012-11-27 21:51:00
4:51 PM,32.0,10.4,41,30.28,10.0,SW,6.9,-,N/A,,Mostly Cloudy,220,2012-11-27 22:51:00
5:51 PM,30.9,10.0,42,30.32,10.0,SSW,5.8,-,N/A,,Mostly Cloudy,210,2012-11-27 23:51:00
6:51 PM,30.0,10.9,45,30.33,10.0,SW,6.9,-,N/A,,Overcast,220,2012-11-28 00:51:00
7:51 PM,30.0,12.0,47,30.32,10.0,SW,6.9,-,N/A,,Overcast,220,2012-11-28 01:51:00
8:51 PM,30.9,10.9,43,30.31,10.0,SW,8.1,-,N/A,,Overcast,220,2012-11-28 02:51:00
9:51 PM,30.9,12.0,46,30.31,10.0,SW,8.1,-,N/A,,Overcast,220,2012-11-28 03:51:00
10:51 PM,30.9,12.0,46,30.30,10.0,WSW,10.4,-,N/A,,Overcast,240,2012-11-28 04:51:00
11:51 PM,32.0,12.9,45,30.30,10.0,WSW,9.2,-,N/A,,Mostly Cloudy,250,2012-11-28 05:51:00